Location: Mary A Oil Field
(38.5606°N, 98.9545°W)
Time: 12:49:25
(UTC+00:00)

Cosmos 2369 - Pass Details

Date: 20 January 2020
Orbit: 839 x 856 km, 71.0° (Epoch: 20 February)

Event Time Altitude Azimuth Distance (km) Brightness Sun altitude
Exits shadow 11:16:52 67° 36° (NE) 927 3.9 -29.7°
Drops below altitude 10° 11:21:48 10° 24° (NNE) 2,494 6.3 -28.7°
Sets 11:24:16 0° 24° (NNE) 3,434 7.1 -28.3°
